Regional Weather Roundup
Issued by NWS

Home | Current Version | Previous Version | Text Only | Print | Product List | Glossary Off
Versions: 1 2 3 4 5 6 7 8 9 10 11 12 13 14 15 16 17 18 19 20 21 22 23 24 25 26 27 28 29 30 31 32 33 34 35 36 37 38 39 40 41 42 43 44 45 46 47 48 49 50

000
ASUS43 KBIS 282102
RWRND

NORTH DAKOTA REGIONAL WEATHER ROUNDUP
NATIONAL WEATHER SERVICE BISMARCK ND
300 PM CST TUE FEB 28 2017

NOTE: "FAIR" INDICATES FEW OR NO CLOUDS BELOW 12,000 FEET WITH NO
SIGNIFICANT WEATHER AND/OR OBSTRUCTIONS TO VISIBILITY.


NDZ001>003-009>011-017-282200-
NORTHWEST NORTH DAKOTA

CITY           SKY/WX    TMP DP  RH WIND       PRES   REMARKS
WILLISTON      CLOUDY    26  18  71 S12       29.78S WCI  16
MINOT          FAIR      15   7  70 SE10      29.86S WCI   2
MINOT AFB      FLURRIES  13   6  75 SE13      29.86S WCI  -2
$$

NDZ018>021-031>035-040>046-282200-
SOUTHWEST NORTH DAKOTA

CITY           SKY/WX    TMP DP  RH WIND       PRES   REMARKS
BISMARCK       PTSUNNY   25  16  68 NE7       29.85S WCI  17
DICKINSON      CLOUDY    23  19  85 S9        29.74F WCI  13
GARRISON         N/A     18  13  80 E9        29.83F WCI   7
HETTINGER ARPT CLOUDY    26  18  71 SE6       29.76F WCI  19
$$

NDZ004>008-012>016-024-026-027-054-282200-
NORTHEAST NORTH DAKOTA

CITY           SKY/WX    TMP DP  RH WIND       PRES   REMARKS
GRAND FORKS    MOSUNNY   22  11  62 N14       29.91R WCI   9
GRND FRKS AFB  SUNNY     18  10  70 N14       29.91S WCI   4
DEVILS LAKE    FAIR      15   8  73 N8        29.90S WCI   4
$$

NDZ022-023-025-028>030-036>039-047>053-282200-
SOUTHEAST NORTH DAKOTA

CITY           SKY/WX    TMP DP  RH WIND       PRES   REMARKS
FARGO          PTSUNNY   30  24  78 N20       29.82F WCI  17
JAMESTOWN      FAIR      27  18  69 N10       29.83F WCI  17
$$





USA.gov is the U.S. government's official web portal to all federal, state and local government web resources and services.